TIME,DELAY(SENSOR),PRES,OXYGEN,RAWTEMP,T(OPTODE),TCPHASE,FLUOR,BETA(BETA700),BETA(BETA412),BETA(BETA440),CDOM,C(CSC),ED(ED412.40),ED(ED444.00),ED(ED489.70),ED(ED554.30),LU(LU411.80),LU(LU443.40),LU(LU489.60),LU(LU554.10),COMP,TILTX,TILTY,CHECK
1379217353,5810,849.4699707031250000,40.7521591186523440,660.7374267578125000,4.6036930084228520,54.8909683227539060,52,100,83,79,78,15296,2147752365,2147425060,2148011117,2147877138,2147639067,2147055442,2148260379,2147199643,2125,4,13,31703
1379220949,5811,924.3099975585938000,49.7801094055175800,668.0584716796875000,4.3623099327087400,53.6771583557128900,52,97,88,78,79,15297,2147753234,2147427730,2148012324,2147874980,2147641152,2147054400,2148261101,2147199497,12,4,13,63071
1379224549,5809,927.7299804687500000,49.3967590332031250,669.6815185546875000,4.3087201118469240,53.7530097961425800,52,101,86,80,78,15291,2147753517,2147425627,2148012489,2147872813,2147640045,2147056630,2148269613,2147199140,3147,4,13,33373
1379228149,5809,959.0399780273438000,50.6646308898925800,673.8502197265625000,4.1709270477294920,53.6298408508300800,52,99,84,77,78,15291,2147754870,2147428251,2148013147,2147872612,2147639670,2147053275,2148260726,2147198491,76,4,13,8003
1379231749,5809,964.6799926757812000,50.9861106872558600,674.0745849609375000,4.1635041236877440,53.5872688293457000,52,96,83,77,79,15291,2147753115,2147423936,2148013595,2147876425,2147640649,2147056402,2148264301,2147197293,3328,4,13,6480
1379235349,5810,969.0499877929688000,50.4871711730957000,673.5374145507812000,4.1812729835510250,53.6488800048828100,52,98,88,78,79,15291,2147755108,2147427520,2148012324,2147875885,2147641984,2147059346,2148261248,2147198573,13,4,13,57656
1379238949,5810,997.0399780273438000,51.1061706542968750,676.7122192382812000,4.0762119293212890,53.6031303405761700,53,98,86,79,79,15287,2147755821,2147425462,2148011291,2147873737,2147641920,2147052900,2148260736,2147198025,3508,4,13,50651
1379242549,5808,1003.2399902343750000,51.1505317687988300,676.7117919921875000,4.0762248039245605,53.5951881408691400,53,98,83,78,78,15288,2147756489,2147425435,2148012096,2147877074,2147643401,2147057234,2148265362,2147201408,68,4,13,32883
1379246149,5809,1004.8200073242188000,51.2321701049804700,676.7075195312500000,4.0763659477233890,53.5864601135253900,52,96,82,79,79,15286,2147756333,2147426011,2148010788,2147878244,2147643392,2147053906,2148268973,2147200301,3548,4,13,27103
1379249749,5810,1008.1799926757812000,51.0267601013183600,676.8071899414062000,4.0730671882629395,53.6156005859375000,52,98,87,78,79,15285,2147754797,2147427355,2148015972,2147873700,2147643026,2147053010,2148265472,2147195602,3568,4,13,52205
1379253349,5808,1007.7899780273438000,50.7566719055175800,676.5573730468750000,4.0813350677490230,53.6512794494628900,53,97,84,79,80,15286,2147757787,2147425691,2148016557,2147877485,2147637549,2147055158,2148266944,2147198308,3486,4,13,9330
1379256949,5808,1011.5100097656250000,51.1330909729003900,676.7338256835938000,4.0754947662353520,53.6023101806640600,52,97,85,79,78,15288,2147753051,2147425334,2148011849,2147878372,2147644224,2147053302,2148262043,2147198738,3540,4,13,3287
1379260549,5810,1014.1699829101562000,50.6199111938476560,676.3416137695312000,4.0884819030761720,53.6645317077636700,52,96,83,79,78,15285,2147755529,2147424713,2148011675,2147873590,2147639890,2147056877,2148266166,2147201700,3406,4,13,28149
1379264149,5808,1015.0900268554688000,50.5621795654296900,676.3933715820312000,4.0867648124694820,53.6716995239257800,53,96,84,79,78,15284,2147755648,2147425270,2148012489,2147872512,2147642203,2147049700,2148265234,2147195794,3566,4,13,10911
1379267749,5809,1013.7700195312500000,50.1940002441406250,675.4586181640625000,4.1177082061767580,53.7147293090820300,52,98,84,78,79,15286,2147754432,2147422491,2148013860,2147876736,2147642212,2147056493,2148264420,2147194468,2831,4,13,47555
1379271349,5808,1014.2999877929688000,50.2160682678222660,676.1813964843750000,4.0937838554382320,53.7198295593261700,53,97,81,79,79,15285,2147754870,2147424786,2148015707,2147875117,2147639936,2147052580,2148261760,2147194788,230,4,13,8591
1379274949,5809,1006.1599731445312000,50.7144508361816400,676.8792114257812000,4.0706839561462400,53.6568794250488300,52,98,84,78,79,15285,2147757229,2147424301,2148012050,2147873499,2147641216,2147062692,2148260845,2147199725,128,3,13,64805
1379278549,5810,1009.0000000000000000,51.0600700378418000,677.6052856445312000,4.0466370582580570,53.6240615844726560,53,96,84,79,79,15285,2147755355,2147424246,2148013851,2147876653,2147640777,2147057206,2148262308,2147203410,338,4,13,43157
1379282149,5808,1007.2199707031250000,51.0511016845703100,677.7387695312500000,4.0422129631042480,53.6242294311523440,51,102,85,79,78,15280,2147754889,2147422637,2148013796,2147876260,2147641819,2147055177,2148261988,2147196388,3511,4,13,55206
1379285749,5806,1006.0700073242188000,51.2169494628906250,677.9357910156250000,4.0356898307800290,53.6067695617675800,52,98,85,78,78,15286,2147754971,2147425380,2148012982,2147874221,2147642962,2147059090,2148262390,2147193435,261,4,13,56288
1379289349,5807,1010.3300170898438000,51.4488601684570300,677.3621826171875000,4.0546860694885250,53.5651206970214840,53,101,85,78,78,15286,2147755053,2147428260,2148013056,2147876269,2147640164,2147057307,2148265472,2147200502,3501,4,13,1756
1379292949,5806,1017.3699951171875000,50.9166793823242200,676.5994873046875000,4.0799431800842285,53.6276817321777340,53,101,86,78,79,15271,2147756416,2147425508,2148012992,2147874112,2147642889,2147053677,2148262381,2147199149,232,4,13,12788
1379296549,5808,1012.2999877929688000,50.2108688354492200,676.5441894531250000,4.0817742347717285,53.7214813232421900,53,99,84,77,77,15283,2147757001,2147428132,2148015122,2147876178,2147644361,2147050651,2148264685,2147200566,3257,4,13,56561
1379300149,5810,1016.0700073242188000,50.2862396240234400,676.8922729492188000,4.0702481269836430,53.7184600830078100,52,97,86,78,79,15277,2147754788,2147423451,2148011611,2147873618,2147640996,2147055350,2148268809,2147197577,44,4,13,12023
1379303749,5806,1017.8400268554688000,51.3395500183105500,677.0670166015625000,4.0644631385803220,53.5779800415039060,52,97,83,79,80,15281,2147757092,2147425545,2148013860,2147878235,2147640996,2147051355,2148258843,2147196836,3406,3,13,16696
1379307349,5808,1019.4199829101562000,50.6245613098144500,676.6513061523438000,4.0782279968261720,53.6661109924316400,52,96,87,77,78,15282,2147754185,2147426212,2148012589,2147873792,2147642724,2147052041,2148265536,2147200310,202,4,13,28311
1379310949,5810,1006.0900268554688000,50.6376686096191400,677.1964111328125000,4.0601792335510250,53.6753196716308600,52,98,83,78,81,15280,2147754724,2147425572,2148010642,2147877696,2147640896,2147052992,2148268507,2147199213,3083,4,13,48048
1379314549,5806,1015.0300292968750000,50.6863098144531250,678.0114135742188000,4.0331859588623050,53.6734809875488300,53,99,85,79,78,15278,2147757376,2147422564,2148008914,2147875611,2147642386,2147057764,2148265344,2147200219,239,4,13,6209
1379318149,5809,1012.9500122070312000,50.6037597656250000,678.0399780273438000,4.0322380065917970,53.6860694885253900,53,96,84,78,79,15280,2147754816,2147422080,2148013202,2147873901,2147640009,2147053814,2148259026,2147196013,272,4,13,52062
1379321749,5808,1008.5399780273438000,50.7478713989257800,678.0504760742188000,4.0318908691406250,53.6734390258789060,52,100,88,79,79,15277,2147758116,2147425892,2148014006,2147876964,2147641289,2147054043,2148263588,2147198262,95,4,13,2612
1379325349,5810,1020.1699829101562000,51.6322593688964840,677.9699096679688000,4.0345587730407715,53.5509109497070300,52,96,86,79,79,15280,2147753078,2147426715,2148013613,2147873508,2147640612,2147052288,2148264694,2147201563,534,4,13,36713
1379328949,5805,1006.8300170898438000,51.1362495422363300,678.0651245117188000,4.0314059257507320,53.6201591491699200,53,100,86,79,79,15179,2147754139,2147424045,2148010038,2147875401,2147643602,2147051648,2148262409,2147197494,520,4,13,1429
1379332549,5809,1008.0800170898438000,51.0596618652343750,678.0687866210938000,4.0312819480896000,53.6245002746582000,53,98,85,79,80,15228,2147754633,2147426176,2148012059,2147876672,2147644736,2147052800,2148263268,2147200685,258,4,13,48023
1379336149,5812,1009.8900146484375000,51.2300300598144500,678.0744018554688000,4.0310969352722170,53.6065711975097660,52,97,86,78,78,15231,2147754130,2147427154,2148015497,2147874889,2147641088,2147055689,2148261878,2147198336,2868,4,13,65130
1379339749,5807,1015.4000244140625000,51.1233406066894500,677.9760742187500000,4.0343527793884280,53.6180381774902340,52,98,83,77,78,15230,2147755840,2147429028,2148013001,2147875410,2147644141,2147058349,2148265307,2147196315,425,4,13,13697
1379343349,5811,1024.0100097656250000,51.4158515930175800,677.4221801757812000,4.0526981353759770,53.5733985900878900,52,96,86,78,78,15228,2147752566,2147425910,2148012306,2147875026,2147642130,2147053531,2148264365,2147198144,3551,4,13,38524
1379346949,5808,1023.8400268554688000,50.1842803955078100,676.1046142578125000,4.0963292121887210,53.7226791381835940,53,97,85,79,77,15225,2147750546,2147424713,2148012242,2147875264,2147640886,2147058368,2148260050,2147200365,3581,4,13,29272
1379350549,5809,1019.3800048828125000,50.3366699218750000,676.9077148437500000,4.0697398185729980,53.7091712951660160,52,96,88,77,79,15227,2147752420,2147426669,2148013741,2147873280,2147641161,2147057600,2148264027,2147201417,267,4,13,64248
1379354149,5809,1023.0700073242188000,50.4741287231445300,676.9052124023438000,4.0698218345642090,53.6957817077636700,51,99,84,76,79,15225,2147750372,2147425600,2148011529,2147872630,2147638683,2147056594,2148260882,2147198820,3576,4,13,8365
1379357749,5809,1015.0000000000000000,50.5975990295410160,677.2045288085938000,4.0599122047424320,53.6787414550781250,52,98,85,78,79,15227,2147756379,2147424804,2148012553,2147874093,2147640256,2147058066,2148258121,2147200155,119,4,13,6011
1379361355,5809,1015.2299804687500000,50.6601600646972660,678.0571289062500000,4.0316729545593260,53.6798095703125000,52,99,83,78,78,15284,2147755154,2147422628,2148011392,2147873728,2147642989,2147055405,2148269988,2147194733,3401,4,13,45771
